Powrót do katalogu

COSMOS 1275 DEB

AktywnyPO
NORAD 12676·DEBRIS·🇷🇺 Russia

Wystrzelony Jun 4, 1981 z Plesetsk Cosmodrome

Loading…

Następne Przeloty (najbliższe 24 godziny)

TLE

ŚwieżeSource: Space-Track

Epoka: Sep 14, 2026, 09:49 UTC

1 12676U 81053AG  26257.40906337  .00000373  00000-0  30396-3 0  9990
2 12676  82.9423  53.1207 0043416 203.6434 185.2276 13.86894894273092

Śledź COSMOS 1275 DEB w czasie rzeczywistym z AllMySat

Download on the App Store